Location: Dittelbrunn
(50.0738°N, 10.2196°E)
Time: 01:58:49
(UTC+00:00)

OBJECT-B - Pass Details

Date: 18 September 2020
Orbit: 421 x 433 km, 97.0° (Epoch: 09 October)

Event Time Altitude Azimuth Distance (km) Brightness Sun altitude
Exits shadow 19:01:25 39° 114° (ESE) 654 1.2 -15.8°
Maximum altitude 19:02:09 48° 73° (ENE) 566 1.0 -15.9°
Drops below altitude 10° 19:05:18 10° 358° (N) 1,524 3.9 -16.4°
Sets 19:07:21 0° 353° (N) 2,397 5.0 -16.7°
